Location: Moscow
(44.4414°N, 72.7154°W)
Time: 04:00:20
(UTC+00:00)

Courier 1B - Visible Passes

Search period start: 12 November 2024 00:00
Search period end: 22 November 2024 00:00
Orbit: 962 x 1208 km, 28.3° (Epoch: 11 November)

Date Brightness Start Highest point End Pass type
(mag) Time Alt. Az. Time Alt. Az. Time Alt. Az.
12 Nov 9.7 21:50:03 10° SW 21:54:18 18° S 21:58:35 10° SE visible
12 Nov 9.8 23:44:52 10° SW 23:47:08 12° SSW 23:49:26 10° S visible
13 Nov 9.8 22:50:27 10° SW 22:53:36 14° SSW 22:56:48 10° SSE visible
14 Nov 9.8 21:56:24 10° SW 22:00:05 16° SSW 22:03:47 10° SSE visible
16 Nov 10.0 22:03:37 10° SW 22:05:49 12° SSW 22:08:02 10° S visible
